Regional Weather Roundup
Issued by NWS

Home | Current Version | Previous Version | Graphics & Text | Print | Product List | Glossary Off
Versions: 1 2 3 4 5 6 7 8 9 10 11 12 13 14 15 16 17 18 19 20 21 22 23 24 25 26 27 28 29 30 31 32 33 34 35 36 37 38 39 40 41 42 43 44 45 46 47 48 49 50

000
ASUS43 KTOP 142108
RWRKS

WEATHER ROUNDUP FOR KANSAS
NATIONAL WEATHER SERVICE GOODLAND KS
400 PM CDT SUN SEP 14 2014

NOTE:  "FAIR" INDICATES FEW OR NO CLOUDS BELOW 12,000 FEET WITH NO
SIGNIFICANT WEATHER AND/OR OBSTRUCTIONS TO VISIBILITY.

KSZ001>006-013>018-027>032-041>047-142200-
NORTHWEST KANSAS

CITY           SKY/WX    TMP DP  RH WIND       PRES   REMARKS
GOODLAND       SUNNY     69  55  60 S13       30.03F
HAYS           MOSUNNY   81  61  50 S16G23    30.01F
HILL CITY      CLOUDY    76  57  51 SE10      30.02F
RUSSELL        MOSUNNY   78  59  51 S15       30.01F
$$

KSZ061>065-074>080-084>089-142200-
SOUTHWEST KANSAS

CITY           SKY/WX    TMP DP  RH WIND       PRES   REMARKS
DODGE CITY     SUNNY     86  59  39 S25G35    30.00F
ELKHART          N/A    N/A N/A N/A MISG        N/A
GARDEN CITY    SUNNY     85  60  42 S15G26    29.99F
GREAT BEND     SUNNY     84  61  45 S20G26    30.00F
LIBERAL        SUNNY     86  61  42 S23G31    30.03F
PRATT          SUNNY     84  54  34 S23G31    30.04F
$$

KSZ066>073-081>083-090>101-142200-
SOUTHEAST KANSAS

CITY           SKY/WX    TMP DP  RH WIND       PRES   REMARKS
CHANUTE        MOSUNNY   74  56  53 SE10      30.13F
COFFEYVILLE    SUNNY     76  57  51 S9        30.13F
HUTCHINSON     SUNNY     82  58  43 S23       30.04F
MEDICINE LODGE   N/A     84  59  42 S20G31    30.02F
NEWTON         SUNNY     75  55  50 S15G23    30.10F
PARSONS        SUNNY     75  56  51 S8        30.15F
WICHITA INTL   MOSUNNY   82  57  42 S21G26    30.06F
WICHITA JABRA  SUNNY     77  58  51 S17G31    30.08F
WICHITA MCCONL SUNNY     78  58  49 S14G24    30.08F
WINFIELD       MOSUNNY   79  61  53 S10G21    30.10F
$$

KSZ007>012-019>026-033>040-048>060-102>105-142200-
NORTHEAST KANSAS

CITY           SKY/WX    TMP DP  RH WIND       PRES   REMARKS
CONCORDIA      PTSUNNY   70  56  61 SE9       30.05F
EMPORIA        CLOUDY    71  56  58 S13G20    30.11F
LAWRENCE       PTSUNNY   73  54  51 S13       30.13F
MANHATTAN      CLOUDY    75  54  47 SE12      30.08F
OLATHE IND     MOSUNNY   71  56  58 S9        30.15F
OLATHE EXE     CLOUDY    69  56  62 S12       30.14F
SALINA         MOSUNNY   77  58  51 S14       30.06F
TOPEKA BILLARD SUNNY     74  52  46 S12       30.12F
TOPEKA FORBES  SUNNY     74  52  46 S13G21    30.11F
$$


USA.gov is the U.S. government's official web portal to all federal, state and local government web resources and services.